Wind_Speed
11 9 8 7 7 6 4 4 4 3 3 4 3 4 4 5 6 7 7 2 8 12 14 14 7 5 6 1 1 0 1 5 4 1 5 8 6 4 6 15 5 2 23 27 30
12 10 8 7 7 7 6 5 5 5 4 5 5 4 5 4 6 7 4 6 8 12 14 12 9 9 4 2 1 1 4 4 5 4 5 9 8 8 9 7 10 22 24 28 27
13 11 9 7 6 7 7 6 6 6 6 6 6 5 5 3 2 1 7 8 9 12 11 9 7 5 3 1 3 3 3 1 9 6 13 14 7 7 17 4 13 32 36 33 32
13 11 9 8 7 7 7 7 7 8 7 7 6 5 5 3 3 6 11 12 11 14 12 9 2 2 4 5 1 5 8 5 7 9 9 10 9 9 12 1 19 26 32 33 29
12 11 9 8 7 7 7 8 7 8 8 7 6 5 6 4 2 8 14 14 16 14 11 7 3 2 5 4 4 6 6 6 9 12 10 10 6 6 7 6 24 26 28 27 24
12 11 10 8 7 7 7 8 8 8 8 8 7 7 7 4 3 9 15 17 16 15 11 6 6 4 6 2 2 4 7 10 12 12 10 9 9 11 6 15 25 27 26 25 23
14 13 11 9 7 6 7 8 8 7 8 7 7 7 7 5 6 10 17 17 14 13 7 6 3 6 3 1 3 5 3 7 10 4 6 8 6 1 17 17 22 23 23 21 21
14 13 12 9 6 5 6 7 7 7 6 6 7 7 3 8 8 11 18 17 14 11 9 6 2 2 4 3 3 6 4 2 2 5 4 3 3 7 16 20 21 18 17 20 21
14 11 9 7 3 3 5 7 7 6 5 6 6 5 2 7 9 14 19 15 13 10 7 1 5 2 1 1 1 5 2 4 4 3 5 1 3 10 16 16 19 18 17 16 17
14 11 8 5 0 4 7 7 6 5 5 5 3 4 5 5 14 16 17 10 11 11 3 2 2 2 1 3 5 4 2 4 3 2 3 7 4 11 16 18 19 18 17 17 19
14 9 6 3 3 7 9 9 4 2 8 4 2 3 6 8 11 16 19 12 10 6 4 2 3 5 6 11 7 6 9 5 2 4 3 5 7 13 18 16 16 18 20 19 19
13 8 5 3 5 9 9 2 2 2 2 8 10 8 4 7 6 14 19 6 5 5 5 3 8 10 7 5 7 9 9 9 3 4 2 4 4 11 19 20 21 19 19 20 21
11 6 4 4 7 8 6 2 4 5 1 1 3 6 5 8 4 15 19 7 4 6 5 7 5 1 7 10 7 6 11 8 4 5 3 3 4 11 12 15 16 18 19 21 22
8 5 5 8 8 8 3 5 5 1 1 1 2 3 8 8 4 15 20 8 2 6 5 8 6 6 9 11 7 3 5 8 11 9 3 1 1 6 13 15 18 23 24 23 23
6 3 4 5 7 5 2 4 3 1 2 2 3 5 9 5 9 7 19 7 8 4 5 5 3 3 5 8 6 4 9 12 9 4 2 3 3 2 8 15 19 23 23 23 20
6 2 5 5 6 3 3 3 1 2 4 3 4 6 6 2 3 7 7 6 4 5 3 13 1 3 3 5 4 14 15 11 4 1 3 2 3 2 6 10 13 19 22 22 21
5 4 6 5 2 2 4 2 2 1 2 4 3 6 5 3 3 5 10 9 6 5 7 4 9 3 6 8 7 2 5 3 1 2 1 1 3 5 5 4 3 8 14 20 20
9 7 4 4 4 3 2 1 2 2 1 3 3 6 5 5 2 3 8 10 4 5 1 3 8 9 9 6 6 13 4 2 2 2 3 3 3 2 3 6 6 5 6 8 13
10 9 6 3 2 6 1 3 1 0 1 5 5 5 3 3 2 3 6 9 9 12 7 5 4 1 1 3 3 7 4 2 6 1 3 1 2 6 7 10 7 8 8 4 8
5 9 13 9 7 2 1 1 1 2 2 1 3 3 6 6 6 6 7 4 5 13 14 1 4 2 4 3 10 3 9 4 2 2 3 2 3 0 5 11 10 9 9 8 5
3 3 9 8 6 1 3 2 3 2 1 1 2 3 2 3 1 1 2 2 1 5 8 5 3 2 3 0 3 5 4 6 4 2 2 1 2 2 2 10 9 12 9 6 4
4 2 9 12 1 2 2 3 7 6 5 5 4 4 3 1 2 2 2 1 4 11 8 4 1 3 2 1 1 1 2 4 4 5 0 2 3 2 3 5 6 7 5 5 4
4 3 9 9 3 3 2 2 6 8 7 6 5 6 4 1 2 0 2 3 5 3 4 7 1 2 3 4 3 1 2 2 4 3 5 2 4 2 5 4 4 7 7 5 6
3 0 5 8 5 2 3 5 3 6 5 4 3 3 2 4 5 3 2 4 4 4 5 4 3 2 3 2 3 1 1 7 2 3 7 2 6 7 10 7 7 7 7 9 12
5 3 3 3 5 4 1 3 5 6 7 11 4 9 3 6 3 5 6 4 5 5 3 1 3 1 4 3 1 4 3 7 4 3 3 6 11 10 8 8 10 8 7 9 13
5 4 3 2 2 2 4 2 3 3 5 4 4 5 8 4 2 3 5 4 4 6 4 2 2 1 1 7 1 2 4 2 2 3 2 11 10 6 8 10 9 9 9 8 10
12 7 4 4 2 1 2 2 4 2 3 4 2 1 4 3 4 7 5 5 3 4 5 2 3 1 1 8 3 4 5 4 1 2 1 4 7 15 11 12 7 7 10 12 13
Wind_Direction
335 329 323 314 305 299 291 281 270 252 229 239 221 214 213 211 224 229 231 199 178 159 169 174 158 161 181 314 70 73 84 62 39 323 123 152 126 59 102 128 107 113 143 151 156
331 324 316 305 293 289 280 262 260 247 232 234 230 211 225 223 242 245 199 179 169 169 170 171 156 146 135 145 153 94 71 54 7 290 158 143 131 120 140 125 95 116 134 147 158
329 322 312 300 283 275 271 259 248 246 235 229 236 214 221 220 261 107 174 164 158 160 162 142 133 149 120 100 20 55 94 233 10 57 144 146 122 114 152 147 162 151 152 154 160
331 325 314 301 283 266 257 251 242 241 235 228 231 213 212 183 131 146 149 152 157 161 160 151 76 86 59 78 78 124 63 71 31 90 128 152 133 105 162 196 168 157 158 158 166
339 332 322 305 287 265 252 248 236 234 234 231 229 213 198 207 117 154 160 167 164 171 165 147 79 107 104 151 101 134 156 119 78 94 159 151 139 136 204 155 161 154 158 162 169
345 338 329 316 291 262 241 238 235 224 226 226 223 223 192 205 171 164 175 175 176 176 175 112 67 92 76 177 228 193 131 158 77 83 124 154 141 126 160 148 161 163 168 171 169
338 330 323 318 291 254 231 224 225 224 218 220 221 214 201 189 167 174 179 183 179 177 178 157 4 2 308 182 90 305 107 150 73 51 88 133 138 121 151 151 163 170 173 176 180
336 328 319 318 299 250 218 210 211 215 218 208 205 199 219 198 178 171 181 183 184 170 121 74 64 313 314 91 348 338 84 86 53 85 66 119 83 116 154 149 165 182 188 187 183
342 336 329 323 306 230 190 186 193 196 195 187 186 173 210 198 188 179 182 190 193 205 213 160 29 44 289 290 229 36 26 336 354 75 128 102 99 156 164 166 168 184 196 200 200
347 341 339 337 8 146 156 161 166 170 159 150 164 185 224 189 182 181 180 185 183 197 209 191 129 168 268 223 334 330 207 252 265 79 157 139 128 163 178 171 177 188 197 206 205
352 349 359 26 107 136 143 129 133 152 194 188 163 104 126 143 150 169 171 147 137 144 195 109 228 253 251 230 275 271 265 243 166 176 197 199 164 173 186 186 188 200 199 207 217
356 3 26 88 130 138 145 85 84 85 301 244 244 226 152 134 130 157 165 151 156 149 138 185 266 269 254 269 245 245 249 257 97 155 265 152 166 183 187 200 194 209 215 218 219
0 16 60 110 129 133 117 88 337 306 270 315 212 222 206 186 165 168 166 148 159 164 189 248 259 67 291 301 256 220 212 215 196 151 65 149 175 178 203 211 211 217 227 230 233
9 51 83 111 129 140 106 357 342 231 48 69 209 187 167 163 132 174 174 156 126 204 187 263 281 275 275 277 236 236 231 205 157 174 229 285 344 201 191 206 217 218 222 233 237
13 79 116 141 123 132 22 5 0 269 106 129 129 153 152 157 135 164 179 171 170 164 207 223 271 229 275 284 182 32 131 158 148 151 203 133 251 137 189 214 216 218 222 227 232
10 79 148 152 161 182 340 324 319 246 100 136 125 155 139 64 108 120 159 165 172 189 245 261 271 259 259 31 155 128 110 104 94 194 257 68 282 176 190 227 230 218 220 224 227
356 148 165 157 171 210 326 305 278 19 331 138 137 157 133 133 109 151 165 186 199 185 224 248 247 227 186 101 147 177 195 104 122 227 306 130 234 287 263 174 142 183 210 220 227
62 103 141 191 206 217 309 201 53 44 35 82 116 113 169 164 144 138 153 188 204 199 290 191 233 187 180 213 194 200 252 264 332 303 354 186 240 95 345 120 142 180 180 195 213
81 87 72 35 272 229 318 67 5 272 254 135 115 133 165 188 206 176 192 204 203 196 217 187 251 75 203 168 207 167 195 74 109 140 271 335 274 271 47 115 176 186 177 182 203
127 61 43 33 47 124 100 109 295 224 309 146 154 201 168 177 185 199 183 167 201 200 217 172 279 176 103 98 57 245 132 169 93 171 256 252 279 9 30 73 107 123 114 102 120
72 75 16 10 348 24 46 6 301 331 248 282 115 123 111 163 214 151 127 93 227 161 186 180 251 133 183 314 164 147 168 68 103 308 274 281 77 204 120 91 88 92 66 73 96
45 54 356 347 74 28 48 326 339 359 21 51 86 68 64 118 123 177 126 259 337 161 169 180 231 316 10 50 350 23 119 190 228 189 233 311 99 34 191 80 58 56 57 8 358
41 22 11 9 79 40 334 63 37 27 29 25 42 37 54 43 114 289 355 33 42 140 150 170 184 143 138 153 152 64 80 107 116 137 184 205 122 120 133 69 49 39 42 44 10
10 50 27 51 61 31 16 19 28 27 60 41 56 93 96 48 37 96 38 36 26 92 109 134 91 329 230 26 348 31 111 155 268 190 158 188 138 166 159 125 90 76 54 28 25
32 61 28 7 23 42 45 10 19 14 17 28 57 48 81 24 36 39 20 4 81 26 84 358 91 50 75 355 229 296 289 220 248 295 244 125 145 153 119 110 92 82 71 54 46
44 14 357 33 319 314 7 61 39 19 359 23 55 32 40 72 27 347 351 25 29 356 39 358 97 316 84 8 49 127 30 104 209 202 108 138 102 118 115 108 107 104 103 88 71
24 15 5 359 11 145 29 354 31 298 42 41 35 73 15 37 301 298 282 297 311 340 1 27 120 10 236 344 317 198 352 323 149 187 355 148 128 156 140 128 123 119 107 102 89
Height
1523 1521 1520 1519 1517 1516 1516 1515 1515 1515 1516 1516 1517 1518 1518 1519 1519 1520 1521 1523 1523 1525 1527 1529 1532 1533 1533 1534 1534 1535 1534 1539 1539 1538 1539 1540 1542 1546 1547 1549 1552 1552 1554 1560 1564
1521 1519 1517 1517 1516 1514 1514 1514 1513 1514 1514 1515 1515 1516 1517 1518 1519 1519 1521 1522 1523 1525 1527 1529 1530 1532 1533 1534 1533 1533 1535 1539 1538 1536 1537 1540 1541 1545 1549 1551 1554 1553 1559 1563 1566
1518 1516 1515 1514 1513 1512 1512 1512 1512 1512 1513 1513 1514 1516 1516 1517 1518 1518 1520 1522 1524 1527 1530 1530 1530 1532 1533 1533 1532 1533 1536 1536 1536 1534 1536 1539 1542 1545 1548 1551 1553 1550 1555 1561 1565
1515 1513 1512 1511 1510 1510 1509 1509 1510 1510 1511 1512 1512 1514 1515 1517 1520 1518 1520 1522 1525 1527 1530 1530 1531 1532 1532 1532 1533 1534 1536 1534 1535 1534 1537 1540 1543 1546 1549 1550 1551 1556 1558 1559 1564
1513 1511 1510 1508 1508 1508 1507 1507 1508 1508 1509 1511 1511 1513 1515 1516 1518 1518 1520 1522 1525 1528 1530 1531 1533 1532 1529 1530 1530 1530 1532 1532 1533 1532 1536 1539 1543 1546 1550 1549 1551 1556 1561 1564 1568
1511 1509 1507 1507 1505 1505 1505 1505 1505 1507 1508 1509 1510 1511 1514 1516 1516 1518 1520 1522 1526 1529 1530 1533 1534 1530 1528 1529 1527 1528 1529 1529 1531 1533 1535 1538 1543 1543 1552 1552 1552 1556 1560 1565 1567
1509 1507 1505 1504 1503 1502 1503 1503 1504 1505 1506 1508 1510 1511 1513 1515 1515 1516 1520 1523 1526 1528 1530 1532 1532 1531 1527 1528 1528 1527 1529 1531 1532 1534 1537 1538 1544 1544 1550 1552 1555 1558 1560 1565 1568
1507 1504 1502 1501 1501 1500 1501 1502 1503 1504 1505 1507 1508 1510 1512 1513 1515 1516 1519 1523 1526 1528 1530 1532 1531 1530 1527 1531 1530 1527 1526 1532 1536 1534 1539 1538 1546 1547 1552 1552 1556 1561 1563 1562 1565
1505 1502 1500 1499 1498 1499 1500 1501 1502 1503 1505 1506 1509 1510 1511 1512 1514 1516 1519 1523 1526 1528 1530 1531 1533 1532 1529 1531 1531 1532 1540 1537 1536 1533 1535 1538 1544 1546 1550 1554 1556 1559 1562 1564 1565
1503 1501 1499 1498 1498 1498 1500 1501 1502 1503 1505 1507 1509 1513 1510 1511 1512 1515 1519 1523 1526 1528 1531 1532 1533 1532 1531 1531 1539 1535 1538 1539 1541 1536 1536 1539 1542 1546 1549 1551 1554 1557 1560 1562 1563
1503 1500 1499 1498 1498 1499 1501 1502 1507 1506 1504 1503 1506 1507 1507 1509 1513 1516 1519 1522 1525 1528 1527 1531 1530 1529 1526 1525 1525 1528 1529 1533 1534 1533 1536 1537 1540 1543 1547 1550 1553 1556 1558 1559 1559
1502 1500 1499 1498 1499 1500 1502 1503 1503 1505 1503 1501 1503 1506 1508 1510 1513 1516 1520 1523 1524 1526 1529 1531 1530 1521 1522 1524 1528 1528 1530 1529 1533 1533 1533 1537 1539 1541 1544 1545 1548 1553 1556 1557 1558
1501 1499 1498 1499 1500 1502 1503 1503 1503 1502 1503 1501 1502 1504 1507 1510 1511 1514 1519 1521 1523 1526 1527 1527 1521 1522 1521 1519 1526 1527 1525 1525 1528 1534 1533 1536 1543 1543 1542 1546 1548 1551 1553 1555 1555
1501 1500 1500 1500 1504 1503 1504 1503 1502 1501 1503 1503 1502 1503 1505 1506 1511 1513 1518 1522 1524 1525 1526 1523 1518 1520 1519 1519 1519 1525 1518 1520 1528 1534 1542 1538 1544 1542 1537 1541 1543 1544 1547 1550 1551
1500 1500 1500 1501 1502 1503 1505 1502 1501 1502 1520 1503 1502 1503 1504 1507 1508 1513 1516 1520 1522 1523 1526 1521 1519 1521 1522 1516 1515 1524 1516 1521 1528 1534 1537 1542 1546 1534 1536 1537 1534 1537 1541 1545 1547
1500 1499 1500 1501 1502 1503 1503 1502 1503 1507 1522 1502 1501 1502 1504 1506 1508 1512 1516 1519 1521 1522 1523 1518 1520 1520 1516 1517 1515 1521 1523 1528 1531 1532 1542 1545 1542 1528 1534 1528 1527 1533 1537 1541 1543
1497 1498 1499 1501 1503 1503 1502 1502 1507 1509 1501 1505 1502 1501 1503 1507 1508 1509 1514 1518 1521 1531 1528 1518 1514 1513 1515 1519 1521 1519 1519 1539 1545 1543 1546 1544 1545 1525 1521 1523 1525 1527 1533 1536 1538
1497 1497 1499 1500 1500 1501 1501 1502 1511 1504 1501 1500 1501 1502 1505 1505 1508 1509 1513 1517 1518 1519 1524 1524 1525 1507 1506 1506 1510 1517 1516 1522 1550 1547 1541 1541 1540 1521 1520 1524 1526 1528 1531 1533 1534
1499 1499 1499 1499 1498 1499 1501 1503 1507 1502 1498 1498 1500 1505 1508 1506 1507 1509 1511 1511 1508 1512 1523 1526 1516 1503 1505 1505 1505 1513 1520 1519 1534 1549 1543 1538 1529 1520 1518 1525 1526 1527 1529 1531 1532
1500 1499 1500 1499 1499 1499 1500 1508 1502 1499 1498 1497 1501 1502 1506 1505 1508 1509 1510 1505 1506 1507 1508 1513 1521 1504 1504 1505 1508 1505 1514 1522 1522 1547 1548 1536 1538 1526 1519 1525 1526 1528 1528 1530 1531
1501 1501 1502 1501 1500 1500 1502 1503 1501 1499 1498 1498 1499 1502 1504 1505 1506 1508 1509 1505 1505 1508 1509 1510 1513 1508 1508 1506 1506 1511 1511 1522 1521 1531 1531 1537 1525 1520 1520 1525 1526 1527 1528 1529 1530
1501 1503 1503 1501 1501 1505 1504 1504 1502 1499 1498 1497 1498 1501 1504 1506 1506 1506 1504 1504 1503 1504 1508 1509 1508 1513 1509 1504 1506 1505 1509 1506 1514 1534 1534 1527 1525 1523 1522 1525 1527 1527 1529 1528 1527
1505 1505 1504 1501 1503 1505 1505 1503 1503 1500 1501 1499 1502 1503 1506 1507 1508 1507 1504 1503 1500 1500 1503 1505 1513 1517 1510 1506 1507 1507 1512 1514 1512 1513 1527 1522 1524 1527 1526 1525 1526 1526 1528 1529 1528
1508 1507 1507 1505 1508 1508 1507 1507 1505 1505 1505 1505 1506 1505 1506 1507 1506 1507 1505 1503 1503 1503 1503 1505 1513 1513 1516 1515 1515 1510 1510 1512 1507 1511 1518 1515 1523 1526 1524 1525 1527 1527 1527 1527 1524
1509 1515 1515 1512 1510 1512 1511 1512 1509 1509 1506 1506 1505 1507 1508 1510 1506 1509 1505 1503 1504 1505 1505 1503 1511 1516 1515 1514 1515 1514 1510 1509 1512 1507 1507 1520 1513 1517 1522 1523 1526 1527 1528 1528 1527
1515 1517 1516 1516 1515 1513 1513 1514 1513 1511 1510 1509 1510 1511 1508 1511 1512 1513 1509 1507 1509 1504 1506 1507 1516 1516 1513 1512 1511 1513 1510 1512 1513 1514 1515 1515 1521 1522 1524 1526 1528 1529 1530 1530 1531
1519 1518 1518 1517 1515 1513 1517 1516 1514 1515 1513 1512 1512 1511 1510 1512 1511 1510 1510 1510 1511 1512 1510 1509 1512 1517 1520 1516 1509 1518 1513 1509 1509 1511 1512 1509 1515 1523 1525 1528 1530 1531 1531 1532 1533